Regional Weather Roundup
Issued by NWS Upton, NY

Current Version | Previous Version | Text Only | Print | Product List | Glossary Off
Versions: 1 2 3 4 5 6 7 8 9 10 11 12 13 14 15 16 17 18 19 20 21 22 23 24 25 26 27 28

000
ASUS41 KOKX 221608
RWROKX

REGIONAL WEATHER ROUNDUP
NATIONAL WEATHER SERVICE NEW YORK NY
1100 AM EST WED FEB 22 2017

NOTE: "FAIR" INDICATES FEW OR NO CLOUDS BELOW 12,000 FEET WITH NO
SIGNIFICANT WEATHER AND/OR OBSTRUCTIONS TO VISIBILITY.

NYZ071-072-176-178-NJZ106-104-221700-
NEW YORK CITY METRO AREA

CITY           SKY/WX    TMP DP  RH WIND       PRES   REMARKS
Central Park   CLOUDY    48  36  63 W3        30.03F
Wall St Helipt NOT AVBL
LaGuardia APRT CLOUDY    50  37  61 SW6       30.01F
Kennedy INTL   CLOUDY    46  39  76 S6        30.03F
Breezy Point     N/A     45 N/A N/A S2          N/A
Newark/Liberty CLOUDY    47  37  68 SW8       30.02F
Teterboro      CLOUDY    48  37  65 SW3       30.01F
$$

NYZ177-179-078>081-221700-
LONG ISLAND NEW YORK

CITY           SKY/WX    TMP DP  RH WIND       PRES   REMARKS
Jones Beach      N/A     45 N/A N/A SW5         N/A
Matinecock PT    N/A     43 N/A N/A CALM        N/A
Farmingdale    CLOUDY    47  38  71 SW12      30.02F
MacArthur/ISP  LGT RAIN  47  40  76 SW13      30.02F
Shirley        PTSUNNY   48  40  73 SW10      30.03F
Westhampton    PTSUNNY   49  39  68 SW8       30.04F
Southampton    NOT AVBL
Bridgehampton  NOT AVBL
East Hampton   CLOUDY    47  38  73 S3        30.01F
Montauk          N/A     48  39  71 W6        30.02F
$$

NYZ052-065-067-221700-
HUDSON VALLEY

CITY           SKY/WX    TMP DP  RH WIND       PRES   REMARKS
White Plains   LGT RAIN  44  36  73 VRB3      29.99F
Newburgh       NOT AVBL
Montgomery     CLOUDY    44  37  76 SW8       29.98F
Poughkeepsie   MOSUNNY   47  34  60 SW5       29.99F
Albany         MOSUNNY   47  32  56 VRB5      29.99F
$$

NJZ001-105-106-008-010-013-015-019>022-104-221700-
NEW JERSEY

CITY           SKY/WX    TMP DP  RH WIND       PRES   REMARKS
Newark/Liberty CLOUDY    47  37  68 SW8       30.02F
Teterboro      CLOUDY    48  37  65 SW3       30.01F
Caldwell       CLOUDY    45  35  68 VRB3      30.02F
Somerville     CLOUDY    45  35  68 CALM      30.01F
Linden         NOT AVBL
Sussex         LGT RAIN  44  38  79 SW5       30.00F
Andover          N/A     43  36  76 SW3       30.00F
Trenton        CLOUDY    46  39  76 S5        30.02F
Millville      CLOUDY    50  47  89 SW7       30.03F
Atlantic City  CLOUDY    52  44  74 SW7       30.03F
Wrightstown    CLOUDY    47  40  77 W5        30.00F
Toms River       N/A     50  42  74 SW6       30.03F
Belmar         CLOUDY    47  41  80 SW8       30.03F
$$

PAZ047>061-062-071-221700-
EASTERN PENNSYLVANIA

CITY           SKY/WX    TMP DP  RH WIND       PRES   REMARKS
Philadelphia   PTSUNNY   49  40  71 W3        30.03F
Allentown      CLOUDY    47  36  65 SW3       30.01F
Scranton       CLOUDY    46  40  79 N3        29.96F
$$

CTZ002-004>006-009-010-012-RIZ004-006-007-MAZ004-011-015-221700-
SOUTHERN NEW ENGLAND
 IN CT

CITY           SKY/WX    TMP DP  RH WIND       PRES   REMARKS
Bradley INTL   PTSUNNY   45  34  65 S5        29.99F
Hartford       CLOUDY    45  35  68 S6        30.00F
Danbury        CLOUDY    44  35  70 SW8       30.01F
Wtrbury/Oxford PTSUNNY   45  32  61 W6        30.00F
Bridgeport     CLOUDY    44  36  73 SW8       30.01F
Meriden        MOSUNNY   47  35  63 SE5       30.00F
New Haven      CLOUDY    43  37  79 S7        30.01F
Chester        PTSUNNY   45  36  70 SW5       29.99F
Groton         CLOUDY    46  38  73 SW7       30.00F
Wilimantic     PTSUNNY   47  35  63 CALM      30.00F

 IN RI

CITY           SKY/WX    TMP DP  RH WIND       PRES   REMARKS
Providence     PTSUNNY   48  35  60 W6        29.99F
Block Island   CLOUDY    46  39  76 W15       30.01F
Westerly       CLOUDY    47  36  65 SW8       30.02F
 IN MA

CITY           SKY/WX    TMP DP  RH WIND       PRES   REMARKS
Boston         PTSUNNY   48  35  60 W8        29.97F
Worcester      CLOUDY    50  32  50 NW5       29.96F
Westfield      MOSUNNY   44  33  65 SW5       29.98F
Provincetown   CLOUDY    46  38  73 SW9       29.99F
Nantucket      PTSUNNY   46  39  76 SW13      30.02F
$$

ANZ330-335-338-340-345-350-353-355-221700-
COASTAL MARINE OBSERVATIONS


STATION/POSITION TIME  SKY/WX   TEMP    WIND        PRES    VSBY  WAVE
                                AIR SEA DIR/SP/G                  HT/PER
                 (UTC)          (F)     (DEG/KT/KT) (MB)    (MI)  (FT/S)
NY HARB ENTRANCE 1450            43 42  210/  4/  4 1017.2          2/ 8
20 S FIRE ISLAND 1550            44 43  200/  4/  6 1017.0          2/ 8
GREAT SOUTH BAY  NOT AVBL
23 SSW MONTAUK P 1450            45 44              1018.0          3/12
15 E BARNEGAT LI 1530               42                N/A           2/ 8
HUDSON CANYON    1450               49              1017.8          3/ 8
KINGS POINT      1548            45 38              1016.3
EXECUTION ROCKS  NOT AVBL
CENTRAL LI SOUND 1453            40     220/  4/  6   N/A           0
EASTERN LI SOUND NOT AVBL
ROBBINS REEF     1548            44     160/  4/  5 1016.8
$$


>>>>>>>>>>>>>>>>>>>>>>>>>>>> KEY <<<<<<<<<<<<<<<<<<<<<<<<<<<
>                                                          <
>     SKY/WX - Sky Condition/Present Weather               <
>     TMP    - Temperature in Fahrenheit                   <
>     DP     - Dew Point in Fahrenheit                     <
>     RH     - Relative Humidity in Percent                <
>     WIND   - Direction (from) and Speed in MPH           <
>     PRES   - Mean Sea Level Pressure (inches of Hg)      <
>     WCI    - Wind Chill Index                            <
>     VSB    - VISIBILITY IN MILES                         <
>     HX     - HEAT INDEX                                  <
>     TC     - TEMPERATURE IN CELSIUS                      <
>     VRB    - VARIABLE WIND DIRECTION                     <
>                                                          <
>>>>>>>>>>>>>>>>>>>>>>>>>>>> KEY <<<<<<<<<<<<<<<<<<<<<<<<<<<




USA.gov is the U.S. government's official web portal to all federal, state and local government web resources and services.